DW8790 Maspalomas ES current weather conditions

sailwx.info

Wind from 284 at 0 knots gusting 2

Air temperature 23.9° C
Dewpoint 9.5° C

Last reported at 2014-Oct-23 03:50 UTC.
Time now 2014-Oct-23 05:13 UTC

Location: N 27°46' W 015°34'.
View on Google Maps.

See reports from other nearby stations

  
Tides and Currents Weather Stations Pressure Air Temp Water Temp Dewpoint Dewpoint Depression Visibility Wind Speed Wind Dir Waves Ship Positions
date/time (UTC)wind fromknots sea level pressurealtimeterstation pressurevisibilityair tempwater tempwave heightnotes
2014-Oct-23 03:50 284 0 gusting 2 23.9
2014-Oct-23 03:40 284 0 gusting 2 23.9
2014-Oct-23 03:30 284 1 gusting 2 23.9
2014-Oct-23 03:20 300 1 gusting 4 23.9
2014-Oct-23 03:10 032 0 gusting 4 23.9
2014-Oct-23 03:00 316 2 gusting 5 23.9
2014-Oct-23 02:50 013 1 gusting 5 23.9
2014-Oct-23 02:40 274 0 gusting 4 23.9
2014-Oct-23 02:30 306 2 gusting 5 24.4
2014-Oct-23 02:20 278 0 gusting 4 24.4
2014-Oct-23 02:10 304 2 gusting 2 24.4
2014-Oct-23 02:00 312 0 gusting 4 24.4
2014-Oct-23 01:50 326 1 gusting 4 24.4
2014-Oct-23 01:40 290 2 gusting 4 23.9
2014-Oct-23 01:30 310 1 gusting 4 23.9
2014-Oct-23 01:20 318 0 gusting 4 24.4
2014-Oct-23 01:10 321 1 gusting 2 24.4
2014-Oct-23 01:00 290 1 gusting 2 23.9
2014-Oct-23 00:50 307 2 gusting 2 23.9
2014-Oct-23 00:40 301 2 gusting 2 23.9
2014-Oct-23 00:30 291 1 gusting 4 23.9
2014-Oct-23 00:20 310 1 gusting 2 24.4
2014-Oct-23 00:10 040 23.9
2014-Oct-23 00:00 040 24.4
2014-Oct-22 23:50 040 23.9
2014-Oct-22 23:40 040 24.4
2014-Oct-22 23:30 040 24.4
2014-Oct-22 23:20 040 24.4
2014-Oct-22 23:10 298 24.4
2014-Oct-22 23:00 298 0 gusting 2 25.0
2014-Oct-22 22:50 300 2 gusting 4 25.0
2014-Oct-22 22:40 269 1 gusting 2 25.6
2014-Oct-22 22:30 269 25.6
2014-Oct-22 22:20 269 26.1
2014-Oct-22 22:10 269 26.1
2014-Oct-22 22:00 269 26.1
2014-Oct-22 21:50 269 25.6
2014-Oct-22 21:40 269 26.1
2014-Oct-22 21:30 269 1 gusting 2 26.1
2014-Oct-22 21:20 269 1 gusting 2 26.1
2014-Oct-22 21:10 269 26.1
2014-Oct-22 21:00 269 2 gusting 2 26.1
2014-Oct-22 20:50 269 2 gusting 2 26.1
2014-Oct-22 20:40 269 1 gusting 2 26.1
2014-Oct-22 20:30 269 1 gusting 2 26.7
2014-Oct-22 20:20 269 1 gusting 2 26.7
2014-Oct-22 20:10 269 26.7
2014-Oct-22 20:00 269 26.7
2014-Oct-22 19:50 269 26.7
2014-Oct-22 19:40 269 27.2
2014-Oct-22 19:30 269 27.2
2014-Oct-22 19:20 269 27.8
2014-Oct-22 19:10 269 0 gusting 1 27.8
2014-Oct-22 19:00 269 0 gusting 2 28.3
2014-Oct-22 18:50 269 1 gusting 6 28.3
2014-Oct-22 18:40 281 2 gusting 5 28.9
2014-Oct-22 18:30 283 2 gusting 4 28.9
2014-Oct-22 18:20 279 2 gusting 6 29.4
2014-Oct-22 18:10 278 4 gusting 6 30.0
2014-Oct-22 18:00 278 1 gusting 6 31.1
2014-Oct-22 17:50 280 2 gusting 6 31.7
2014-Oct-22 17:40 280 2 gusting 7 33.3
2014-Oct-22 17:30 127 2 gusting 13 35.0
2014-Oct-22 17:20 102 6 gusting 11 35.0
2014-Oct-22 17:10 101 6 gusting 13 35.6
2014-Oct-22 17:00 100 9 gusting 13 35.6
2014-Oct-22 16:50 106 8 gusting 13 35.6
2014-Oct-22 16:40 099 9 gusting 15 35.6
2014-Oct-22 16:30 099 10 gusting 15 36.1
2014-Oct-22 16:20 092 10 gusting 17 36.1
2014-Oct-22 16:10 101 10 gusting 15 36.7
2014-Oct-22 16:00 106 11 gusting 15 36.7
2014-Oct-22 15:50 107 12 gusting 18 36.7
2014-Oct-22 15:40 099 10 gusting 19 36.7
2014-Oct-22 15:30 109 12 gusting 17 36.7
2014-Oct-22 15:20 101 12 gusting 17 37.2
2014-Oct-22 15:10 106 13 gusting 19 37.2
2014-Oct-22 15:00 100 11 gusting 18 37.2
2014-Oct-22 14:50 096 12 gusting 18 37.2
2014-Oct-22 14:40 092 11 gusting 19 37.2
2014-Oct-22 14:30 110 12 gusting 20 37.8
2014-Oct-22 14:20 108 12 gusting 18 37.8
2014-Oct-22 14:10 086 11 gusting 17 38.3
2014-Oct-22 14:00 089 7 gusting 19 38.3
2014-Oct-22 13:50 076 12 gusting 17 38.3
2014-Oct-22 13:40 073 13 gusting 19 38.3
2014-Oct-22 13:30 083 13 gusting 19 37.8
2014-Oct-22 13:20 082 11 gusting 17 37.8
2014-Oct-22 13:10 090 12 gusting 22 37.8
2014-Oct-22 13:00 086 13 gusting 22 37.8
2014-Oct-22 12:50 098 10 gusting 19 37.8
2014-Oct-22 12:40 065 11 gusting 19 37.8
2014-Oct-22 12:30 085 12 gusting 17 37.2
2014-Oct-22 12:20 078 12 gusting 20 37.2
2014-Oct-22 12:10 060 11 gusting 18 37.2
2014-Oct-22 12:00 075 10 gusting 17 37.2
2014-Oct-22 11:50 079 11 gusting 19 36.7
2014-Oct-22 11:40 064 12 gusting 20 37.2
2014-Oct-22 11:30 097 9 gusting 20 37.2
2014-Oct-22 11:20 097 10 gusting 18 36.7
2014-Oct-22 11:10 090 13 gusting 20 36.7
2014-Oct-22 11:00 081 10 gusting 20 36.7
2014-Oct-22 10:50 080 8 gusting 15 36.7
2014-Oct-22 10:40 097 7 gusting 13 35.0
2014-Oct-22 10:30 169 1 gusting 6 33.9
2014-Oct-22 10:20 293 1 gusting 5 33.3
2014-Oct-22 10:10 187 0 gusting 5 32.8
2014-Oct-22 10:00 217 2 gusting 4 31.7
2014-Oct-22 09:50 249 1 gusting 2 31.7
2014-Oct-22 09:40 278 31.1
2014-Oct-22 09:30 279 0 gusting 2 30.6
2014-Oct-22 09:20 301 1 gusting 2 30.6
2014-Oct-22 09:10 296 0 gusting 2 30.0
2014-Oct-22 09:00 296 30.0
2014-Oct-22 08:50 301 1 gusting 2 29.4
2014-Oct-22 08:40 325 28.9
2014-Oct-22 08:30 325 28.3
2014-Oct-22 08:20 297 1 gusting 4 27.2
2014-Oct-22 08:10 299 2 gusting 4 26.1
2014-Oct-22 08:00 306 2 gusting 4 25.6
2014-Oct-22 07:50 315 1 gusting 4 25.0
2014-Oct-22 07:40 309 1 gusting 2 24.4
2014-Oct-22 07:30 309 1 gusting 2 23.9
2014-Oct-22 07:20 306 2 gusting 5 24.4
2014-Oct-22 07:10 284 2 gusting 4 24.4
2014-Oct-22 07:00 302 25.0
2014-Oct-22 06:50 285 1 gusting 2 25.6
2014-Oct-22 06:40 255 26.1
2014-Oct-22 06:30 285 2 gusting 5 26.7
2014-Oct-22 06:20 317 1 gusting 5 27.8
2014-Oct-22 06:10 286 1 gusting 2 28.3
2014-Oct-22 06:00 096 0 gusting 4 28.9
2014-Oct-22 05:50 066 4 gusting 7 29.4
2014-Oct-22 05:40 057 1 gusting 4 29.4
2014-Oct-22 05:30 047 30.0
2014-Oct-22 05:20 050 1 gusting 11 30.0
2014-Oct-22 05:10 052 6 gusting 10 29.4
2014-Oct-22 05:00 063 0 gusting 2 30.0
2014-Oct-22 04:50 063 4 gusting 8 30.6
2014-Oct-22 04:40 069 2 gusting 13 30.6
2014-Oct-22 04:30 061 6 gusting 13 30.0
2014-Oct-22 04:20 081 7 gusting 13 30.0
2014-Oct-22 04:10 095 7 gusting 10 28.3
2014-Oct-22 04:00 047 4 gusting 7 27.2
2014-Oct-22 03:50 055 1 gusting 6 26.7
2014-Oct-22 03:40 005 26.1
2014-Oct-22 03:30 337 2 gusting 6 25.6
2014-Oct-22 03:20 348 2 gusting 5 25.0
2014-Oct-22 03:10 293 1 gusting 4 25.0
2014-Oct-22 03:00 322 1 gusting 2 24.4
2014-Oct-22 02:50 294 2 gusting 5 24.4
2014-Oct-22 02:40 295 1 gusting 5 25.0
2014-Oct-22 02:30 317 1 gusting 4 24.4
2014-Oct-22 02:20 285 2 gusting 6 25.0
2014-Oct-22 02:10 293 3 gusting 7 25.0
2014-Oct-22 02:00 263 1 gusting 8 25.0
2014-Oct-22 01:50 249 6 gusting 13 25.6
2014-Oct-22 01:40 265 7 gusting 13 26.7
2014-Oct-22 01:30 290 5 gusting 18 28.9
2014-Oct-22 01:20 035 7 gusting 19 31.7
2014-Oct-22 01:10 074 6 gusting 13 31.7
2014-Oct-22 01:00 088 7 gusting 15 31.7
2014-Oct-22 00:50 037 8 gusting 13 32.2
2014-Oct-22 00:40 038 11 gusting 18 32.2
2014-Oct-22 00:30 035 9 gusting 17 31.1
2014-Oct-22 00:20 030 7 gusting 14 29.4
2014-Oct-22 00:10 234 1 gusting 5 27.2
2014-Oct-22 00:00 306 0 gusting 6 26.7
2014-Oct-21 23:50 307 1 gusting 5 26.7
2014-Oct-21 23:40 105 1 gusting 2 26.7
2014-Oct-21 23:30 105 26.1
2014-Oct-21 23:20 105 25.6
2014-Oct-21 23:10 105 1 gusting 4 25.6
2014-Oct-21 23:00 105 25.6
2014-Oct-21 22:50 105 25.0
2014-Oct-21 22:40 105 24.4
2014-Oct-21 22:30 105 0 gusting 1 24.4
2014-Oct-21 22:10 105 24.4
2014-Oct-21 22:00 105 24.4
2014-Oct-21 21:50 105 24.4
2014-Oct-21 21:40 105 24.4
2014-Oct-21 21:30 105 24.4
2014-Oct-21 21:20 105 0 gusting 1 24.4
2014-Oct-21 21:10 105 0 gusting 2 24.4
2014-Oct-21 21:00 105 0 gusting 2 24.4
2014-Oct-21 20:50 105 0 gusting 2 24.4
2014-Oct-21 20:40 105 1 gusting 2 25.0
2014-Oct-21 20:30 105 1 gusting 6 25.0
2014-Oct-21 20:20 103 4 gusting 6 25.6
2014-Oct-21 20:10 285 25.6
2014-Oct-21 20:00 285 25.6
2014-Oct-21 19:50 285 25.6
2014-Oct-21 19:40 285 1 gusting 2 25.6
2014-Oct-21 19:30 283 2 gusting 6 25.6
2014-Oct-21 19:20 280 3 gusting 6 25.6
2014-Oct-21 19:10 252 2 gusting 7 26.1
2014-Oct-21 19:00 239 2 gusting 6 27.2
2014-Oct-21 18:50 247 4 gusting 6 27.8
2014-Oct-21 18:40 110 2 gusting 6 28.3
2014-Oct-21 18:30 133 2 gusting 6 28.3
2014-Oct-21 18:20 139 0 gusting 4 28.9
2014-Oct-21 18:10 309 1 gusting 2 29.4
2014-Oct-21 18:00 042 1 gusting 6 28.9
2014-Oct-21 17:40 059 30.0
2014-Oct-21 17:30 059 0 gusting 2 29.4
2014-Oct-21 17:20 280 0 gusting 5 29.4
2014-Oct-21 17:10 275 3 gusting 7 30.0
2014-Oct-21 17:00 292 3 gusting 10 30.0
2014-Oct-21 16:50 290 5 gusting 11 30.0
2014-Oct-21 16:40 264 4 gusting 6 29.4
2014-Oct-21 16:30 304 3 gusting 8 29.4
2014-Oct-21 16:20 249 7 gusting 10 30.0
2014-Oct-21 14:20 122 7 gusting 11 26.7
2014-Oct-21 14:10 135 5 gusting 10 26.1
2014-Oct-21 14:00 113 6 gusting 10 25.6
2014-Oct-21 13:40 110 8 gusting 11 26.1
2014-Oct-21 13:30 134 4 gusting 7 26.7
2014-Oct-21 13:20 114 6 gusting 8 26.7
2014-Oct-21 13:10 126 5 gusting 7 26.7
2014-Oct-21 13:00 164 2 gusting 6 26.1
2014-Oct-21 12:50 149 2 gusting 6 26.1
2014-Oct-21 12:40 167 2 gusting 7 26.1
2014-Oct-21 12:30 120 5 gusting 10 26.1
2014-Oct-21 12:20 123 6 gusting 10 26.7
2014-Oct-21 12:10 145 2 gusting 6 26.7
2014-Oct-21 12:00 161 0 gusting 10 26.7
2014-Oct-21 11:50 116 7 gusting 10 26.1
2014-Oct-21 11:40 113 3 gusting 6 26.1
2014-Oct-21 11:30 130 2 gusting 4 26.1
2014-Oct-21 11:20 112 0 gusting 2 26.1
2014-Oct-21 11:10 182 0 gusting 6 25.6
2014-Oct-21 11:00 112 6 gusting 8 25.6
2014-Oct-21 10:50 109 1 gusting 6 25.6
2014-Oct-21 10:40 111 4 gusting 6 26.1
2014-Oct-21 10:30 143 1 gusting 2 26.1
2014-Oct-21 10:20 355 0 gusting 5 25.6
2014-Oct-21 10:10 295 25.6
2014-Oct-21 10:00 102 25.6
2014-Oct-21 09:50 114 0 gusting 4 25.6
2014-Oct-21 09:40 177 2 gusting 5 26.1
2014-Oct-21 09:30 116 2 gusting 5 25.6
2014-Oct-21 09:20 104 4 gusting 6 25.0
2014-Oct-21 09:10 108 4 gusting 6 24.4
2014-Oct-21 09:00 101 5 gusting 8 23.9
2014-Oct-21 08:50 103 5 gusting 10 23.9
2014-Oct-21 08:40 107 6 gusting 8 23.3
2014-Oct-21 08:30 097 6 gusting 10 23.3
2014-Oct-21 08:20 088 7 gusting 10 22.8
2014-Oct-21 08:10 103 5 gusting 7 22.8
2014-Oct-21 08:00 107 4 gusting 6 22.2
2014-Oct-21 07:50 100 4 gusting 6 22.2
2014-Oct-21 07:40 084 22.2
2014-Oct-21 07:30 083 2 gusting 6 22.2
2014-Oct-21 07:20 104 4 gusting 6 22.2
2014-Oct-21 07:10 103 6 gusting 8 22.2
2014-Oct-21 07:00 106 5 gusting 10 22.2
2014-Oct-21 06:50 090 7 gusting 10 22.2
2014-Oct-21 06:40 092 5 gusting 8 21.7
2014-Oct-21 06:30 101 5 gusting 6 21.1
2014-Oct-21 06:20 098 2 gusting 4 21.1
2014-Oct-21 06:10 049 0 gusting 4 21.1
2014-Oct-21 06:00 343 20.6
2014-Oct-21 05:50 343 1 gusting 2 20.6
2014-Oct-21 05:40 107 20.6
2014-Oct-21 05:30 107 20.6
2014-Oct-21 05:20 107 20.6
2014-Oct-21 05:10 107 20.6
2014-Oct-21 05:00 107 20.6